When you browse on this site, cookies collect data to enhance your experience and personalize the content and advertising you see.
Visit our Privacy Policy to learn more. By continuing to use the site, you agree to this use of cookies and data.
  • Em Portugal
  • Lista de países
  • Para 7 dias
  • Temperatura da água
  • Mapas de satélite
  • Mapa do tempo
  • Widgets de tempo
  • user-avatar
    Iniciar Sessão

    Previsão horária em Bihać

    Hoje, 19 Abril, Sexta-feira

    Tempo Temperatura Precipitação Vento Pressão Humidade
    00:00 +6°C° 0 mm 2 m/s 717 mmHg 86%
    01:00 +6°C° 0 mm 2 m/s 717 mmHg 86%
    02:00 +6°C° 0 mm 2 m/s 717 mmHg 86%
    03:00 +6°C° 0 mm 2 m/s 717 mmHg 87%
    04:00 +5°C° 0 mm 2 m/s 717 mmHg 87%
    05:00 +6°C° 0 mm 2 m/s 717 mmHg 84%
    06:00 +7°C° 0 mm 2 m/s 718 mmHg 81%
    07:00 +9°C° 0 mm 2 m/s 718 mmHg 77%
    08:00 +10°C° 0 mm 3 m/s 719 mmHg 69%
    09:00 +12°C° 0 mm 3 m/s 719 mmHg 62%
    10:00 +14°C° 0 mm 3 m/s 719 mmHg 54%
    11:00 +16°C° 0 mm 3 m/s 719 mmHg 53%
    12:00 +17°C° 0 mm 3 m/s 719 mmHg 51%
    13:00 +18°C° 0 mm 3 m/s 719 mmHg 49%
    14:00 +17°C° 0 mm 3 m/s 719 mmHg 50%
    15:00 +17°C° 0 mm 3 m/s 719 mmHg 51%
    16:00 +17°C° 0 mm 3 m/s 718 mmHg 53%
    17:00 +14°C° 0 mm 3 m/s 718 mmHg 60%
    18:00 +13°C° 0 mm 2 m/s 718 mmHg 68%
    19:00 +12°C° 0 mm 2 m/s 717 mmHg 76%
    20:00 +10°C° 0 mm 2 m/s 717 mmHg 78%
    21:00 +9°C° 0 mm 2 m/s 718 mmHg 80%
    22:00 +9°C° 0 mm 2 m/s 718 mmHg 81%
    23:00 +9°C° 0 mm 2 m/s 718 mmHg 82%

    Amanhã, 20 Abril, Sábado

    Tempo Temperatura Precipitação Vento Pressão Humidade
    00:00 +8°C° 0 mm 2 m/s 718 mmHg 82%
    01:00 +8°C° 0 mm 2 m/s 717 mmHg 82%
    02:00 +8°C° 0 mm 2 m/s 717 mmHg 82%
    03:00 +8°C° 0 mm 2 m/s 717 mmHg 83%
    04:00 +7°C° 0 mm 2 m/s 717 mmHg 83%
    05:00 +8°C° 0 mm 2 m/s 717 mmHg 81%
    06:00 +9°C° 0 mm 2 m/s 717 mmHg 78%
    07:00 +10°C° 0 mm 2 m/s 717 mmHg 76%
    08:00 +11°C° 0 mm 3 m/s 718 mmHg 69%
    09:00 +13°C° 0 mm 3 m/s 718 mmHg 61%
    10:00 +16°C° 0 mm 3 m/s 718 mmHg 53%
    11:00 +15°C° 0 mm 4 m/s 718 mmHg 51%
    12:00 +17°C° 0 mm 4 m/s 718 mmHg 49%
    13:00 +17°C° 0 mm 4 m/s 718 mmHg 47%
    14:00 +17°C° 0 mm 4 m/s 718 mmHg 46%
    15:00 +17°C° 0 mm 4 m/s 717 mmHg 45%
    16:00 +17°C° 0 mm 4 m/s 717 mmHg 45%
    17:00 +14°C° 0 mm 3 m/s 717 mmHg 51%
    18:00 +12°C° 0 mm 3 m/s 716 mmHg 58%
    19:00 +10°C° 0 mm 2 m/s 716 mmHg 65%
    20:00 +9°C° 0 mm 2 m/s 716 mmHg 67%
    21:00 +8°C° 0 mm 2 m/s 716 mmHg 68%
    22:00 +7°C° 0 mm 2 m/s 716 mmHg 70%
    23:00 +7°C° 0 mm 2 m/s 716 mmHg 70%

    Depois de amanhã, 21 Abril, Domingo

    Tempo Temperatura Precipitação Vento Pressão Humidade
    00:00 +6°C° 0 mm 2 m/s 716 mmHg 70%
    01:00 +6°C° 0 mm 2 m/s 715 mmHg 70%
    02:00 +6°C° 0 mm 2 m/s 715 mmHg 69%
    03:00 +5°C° 0 mm 2 m/s 715 mmHg 68%
    04:00 +5°C° 0 mm 2 m/s 714 mmHg 67%
    05:00 +7°C° 0 mm 1 m/s 714 mmHg 64%
    06:00 +8°C° 0 mm 1 m/s 715 mmHg 61%
    07:00 +9°C° 0 mm 1 m/s 715 mmHg 58%
    08:00 +12°C° 0 mm 1 m/s 715 mmHg 50%
    09:00 +15°C° 0 mm 1 m/s 715 mmHg 42%
    10:00 +18°C° 0 mm 1 m/s 715 mmHg 34%
    11:00 +19°C° 0 mm 1 m/s 715 mmHg 33%
    12:00 +19°C° 0 mm 1 m/s 715 mmHg 33%
    13:00 +20°C° 0 mm 1 m/s 715 mmHg 32%
    14:00 +20°C° 0 mm 1 m/s 714 mmHg 35%
    15:00 +18°C° 0 mm 2 m/s 714 mmHg 38%
    16:00 +18°C° 0 mm 2 m/s 713 mmHg 40%
    17:00 +16°C° 0 mm 1 m/s 713 mmHg 51%
    18:00 +13°C° 0 mm 1 m/s 712 mmHg 63%
    19:00 +11°C° 0 mm 1 m/s 712 mmHg 74%
    20:00 +11°C° 0 mm 1 m/s 712 mmHg 77%
    21:00 +10°C° 0 mm 1 m/s 712 mmHg 81%
    22:00 +9°C° 0 mm 1 m/s 712 mmHg 85%
    23:00 +9°C° 0 mm 1 m/s 711 mmHg 86%

    22 Abril, Segunda-feira

    Tempo Temperatura Precipitação Vento Pressão Humidade
    00:00 +9°C° 0 mm 1 m/s 711 mmHg 87%
    01:00 +9°C° 0 mm 1 m/s 711 mmHg 87%
    02:00 +9°C° 0 mm 1 m/s 711 mmHg 85%
    03:00 +7°C° 0 mm 2 m/s 710 mmHg 83%
    04:00 +7°C° 0 mm 2 m/s 710 mmHg 81%
    05:00 +8°C° 0 mm 2 m/s 710 mmHg 75%
    06:00 +9°C° 0 mm 3 m/s 709 mmHg 69%
    07:00 +10°C° 0 mm 3 m/s 709 mmHg 64%
    08:00 +11°C° 0 mm 4 m/s 709 mmHg 62%
    09:00 +13°C° 0 mm 5 m/s 709 mmHg 61%
    10:00 +14°C° 0 mm 5 m/s 709 mmHg 60%
    11:00 +14°C° 0 mm 5 m/s 709 mmHg 61%
    12:00 +14°C° 0 mm 6 m/s 708 mmHg 62%
    13:00 +14°C° 0 mm 6 m/s 708 mmHg 63%
    14:00 +14°C° 0 mm 6 m/s 707 mmHg 63%
    15:00 +14°C° 0 mm 6 m/s 707 mmHg 63%
    16:00 +14°C° 0 mm 7 m/s 706 mmHg 63%
    17:00 +13°C° 0 mm 6 m/s 706 mmHg 67%
    18:00 +12°C° 0 mm 5 m/s 705 mmHg 71%
    19:00 +11°C° 0 mm 4 m/s 705 mmHg 75%
    20:00 +9°C° 0.6 mm 5 m/s 705 mmHg 80%
    21:00 +9°C° 0.6 mm 5 m/s 705 mmHg 85%
    22:00 +9°C° 0.6 mm 6 m/s 704 mmHg 90%
    23:00 +9°C° 1.7 mm 6 m/s 704 mmHg 90%

    23 Abril, Terça-feira

    Tempo Temperatura Precipitação Vento Pressão Humidade
    00:00 +9°C° 1.7 mm 6 m/s 704 mmHg 90%
    01:00 +9°C° 1.7 mm 6 m/s 703 mmHg 90%
    02:00 +9°C° 0.2 mm 6 m/s 703 mmHg 90%
    03:00 +10°C° 0.2 mm 7 m/s 703 mmHg 90%
    04:00 +10°C° 0.2 mm 8 m/s 702 mmHg 90%
    05:00 +10°C° 0.1 mm 8 m/s 702 mmHg 90%
    06:00 +10°C° 0.1 mm 8 m/s 702 mmHg 90%
    07:00 +10°C° 0.1 mm 8 m/s 702 mmHg 90%
    08:00 +11°C° 0.3 mm 8 m/s 703 mmHg 90%
    09:00 +11°C° 0.3 mm 7 m/s 703 mmHg 90%
    10:00 +11°C° 0.3 mm 7 m/s 703 mmHg 90%
    11:00 +11°C° 0.4 mm 7 m/s 703 mmHg 90%
    12:00 +11°C° 0.4 mm 7 m/s 703 mmHg 90%
    13:00 +12°C° 0.4 mm 7 m/s 704 mmHg 90%
    14:00 +12°C° 0.4 mm 7 m/s 704 mmHg 89%
    15:00 +12°C° 0.4 mm 7 m/s 704 mmHg 89%
    16:00 +12°C° 0.4 mm 7 m/s 704 mmHg 89%
    17:00 +13°C° 0.6 mm 6 m/s 704 mmHg 90%
    18:00 +13°C° 0.6 mm 6 m/s 704 mmHg 91%
    19:00 +13°C° 0.6 mm 6 m/s 704 mmHg 93%
    20:00 +11°C° 0.5 mm 6 m/s 705 mmHg 93%
    21:00 +11°C° 0.5 mm 6 m/s 705 mmHg 93%
    22:00 +12°C° 0.5 mm 5 m/s 706 mmHg 93%
    23:00 +12°C° 0.1 mm 5 m/s 706 mmHg 94%

    24 Abril, Quarta-feira

    Tempo Temperatura Precipitação Vento Pressão Humidade
    00:00 +10°C° 0.1 mm 5 m/s 706 mmHg 94%
    01:00 +11°C° 0.1 mm 4 m/s 707 mmHg 95%
    02:00 +11°C° 0 mm 4 m/s 707 mmHg 95%
    03:00 +11°C° 0 mm 4 m/s 707 mmHg 95%
    04:00 +11°C° 0 mm 4 m/s 708 mmHg 95%
    05:00 +12°C° 0 mm 4 m/s 708 mmHg 94%
    06:00 +12°C° 0 mm 4 m/s 709 mmHg 93%
    07:00 +12°C° 0 mm 4 m/s 709 mmHg 92%
    08:00 +13°C° 0.2 mm 4 m/s 709 mmHg 91%
    09:00 +13°C° 0.2 mm 4 m/s 710 mmHg 89%
    10:00 +14°C° 0.2 mm 4 m/s 710 mmHg 87%
    11:00 +14°C° 0.3 mm 4 m/s 710 mmHg 86%
    12:00 +14°C° 0.3 mm 4 m/s 710 mmHg 85%
    13:00 +15°C° 0.3 mm 4 m/s 711 mmHg 84%
    14:00 +15°C° 0.1 mm 4 m/s 711 mmHg 82%
    15:00 +17°C° 0.1 mm 4 m/s 710 mmHg 80%
    16:00 +17°C° 0.1 mm 4 m/s 710 mmHg 79%
    17:00 +16°C° 0 mm 3 m/s 710 mmHg 84%
    18:00 +13°C° 0 mm 3 m/s 710 mmHg 88%
    19:00 +13°C° 0 mm 2 m/s 710 mmHg 93%
    20:00 +13°C° 0 mm 2 m/s 710 mmHg 92%
    21:00 +12°C° 0 mm 2 m/s 710 mmHg 92%
    22:00 +11°C° 0 mm 3 m/s 710 mmHg 91%
    23:00 +11°C° 0 mm 3 m/s 710 mmHg 89%
    Mostrar mais